Aeroporto :
LOGIN :

Iscrizione | Disclaimer

   EN    FR    IT 

 










Sommario :    VFR   VFR Marginale   IFR   IFR Intensivo   IFR Molto Intensivo
Visibilità : 
Base nubi : 
>= 8 km
>= 3000ft
5 / 8 km
1000 / 3000 ft
1500m / 5 km
500 / 1000 ft
800 / 1500m
200 / 500 ft
< 800m
< 200 ft
Simboli :   Temporali  Nebbia  Neve Forte  Precipitazioni Forti  Vento > 20 kt
SIGMETs :   Varie  Temporali  Ghiacco  Turbolenza  Onda orograficha  Ceneri Vulcaniche







- Altitudine del aeroporto : 995 ft
- Codice IATA : KTW


EPKT - Katowice

ULTIMO METAR :
  • 181530Z 21013KT CAVOK 28/15 Q1012

METARs OBSOLETI :
  • 181500Z 22012KT 180V250 CAVOK 28/15 Q1012
  • 181430Z 22014KT CAVOK 29/15 Q1012
  • 181400Z 23009KT 180V260 CAVOK 28/15 Q1012
  • 181330Z 22010KT 170V250 9999 FEW049 27/15 Q1012
  • 181300Z 22011KT 190V250 CAVOK 27/15 Q1012

TAF TAF EPKT
Valido dal 18 a 12 ore il 19 a 12 ore UTC


181130Z 1812/1912 21014KT CAVOK
BECMG 1817/1820 VRB02KT
BECMG 1908/1911 29010KT
Nessun NOTAM noto per questo aeroporto.



MetMap, La meteo Aeronautica in un colpo d'occhio ! - Copyright ORBIFLY Dicembre 2007 - Disclaimer

ORBIFLY MET'MAP TEAM :

Programmazione e sviluppo : Alexandra Zaïnal
Concezione e sviluppo : Baudouin d'Aumeries
Co-Programmazione e sviluppo : Marc-Olivier Méhu
Supporto tecnico e logistico : Manuel Goepfert
Aiuto per la traduzione : Arnaldo La Scala

Contatto : metmap@orbifly.com




FONTI E CREDITI :

   NOAA